GLD1793 LPLA-LPPD

Flight info

Callsign GLD1793
Flight time 0h 26m
Altitude 13000
Route MIPR1D MIPRU MIPR2N
Aircraft B738/M-SDFGIRY/S

Departure

Time 2026-05-06 20:28
Airport Lajes Airport (LPLA)

Arrival

Time 2026-05-06 20:55
Airport João Paulo II Airport (LPPD)
Time Latitude Longitude Altitude Speed Heading
2026-05-06 20:20 38.75576 -27.08767 204 ft 0 kts 321°
2026-05-06 20:25 38.75581 -27.08765 177 ft 1 kts 12°
2026-05-06 20:25 38.75582 -27.08759 177 ft 1 kts 66°
2026-05-06 20:25 38.75579 -27.08755 177 ft 1 kts 118°
2026-05-06 20:26 38.75569 -27.08737 177 ft 9 kts 122°
2026-05-06 20:26 38.75525 -27.08657 177 ft 12 kts 130°
2026-05-06 20:26 38.75468 -27.08561 177 ft 15 kts 108°
2026-05-06 20:26 38.75513 -27.08440 177 ft 16 kts 44°
2026-05-06 20:27 38.75572 -27.08441 178 ft 0 kts 326°
2026-05-06 20:27 38.75572 -27.08442 178 ft 0 kts 326°
2026-05-06 20:27 38.75574 -27.08444 178 ft 0 kts 326°
2026-05-06 20:27 38.75577 -27.08446 178 ft 2 kts 324°
2026-05-06 20:28 38.75679 -27.08550 178 ft 58 kts 321°
2026-05-06 20:28 38.76225 -27.09123 179 ft 142 kts 321°
2026-05-06 20:28 38.77149 -27.10087 446 ft 191 kts 321°
2026-05-06 20:28 38.78205 -27.11129 1656 ft 182 kts 316°
2026-05-06 20:29 38.79282 -27.11934 2885 ft 190 kts 347°
2026-05-06 20:29 38.80649 -27.11626 3351 ft 218 kts 29°
2026-05-06 20:29 38.81647 -27.10071 3564 ft 241 kts 71°
2026-05-06 20:29 38.81776 -27.07902 3939 ft 250 kts 99°
2026-05-06 20:30 38.81140 -27.05852 4375 ft 251 kts 131°
2026-05-06 20:30 38.78567 -27.02800 5355 ft 255 kts 141°
2026-05-06 20:30 38.77242 -27.01264 5846 ft 259 kts 140°
2026-05-06 20:31 38.75913 -26.99673 6386 ft 265 kts 139°
2026-05-06 20:31 38.74531 -26.97978 6735 ft 282 kts 139°
2026-05-06 20:31 38.73108 -26.96193 7310 ft 289 kts 138°
2026-05-06 20:31 38.71672 -26.94362 7942 ft 293 kts 137°
2026-05-06 20:32 38.70243 -26.92517 8562 ft 299 kts 137°
2026-05-06 20:32 38.68772 -26.90605 9179 ft 304 kts 137°
2026-05-06 20:32 38.67262 -26.88632 9802 ft 308 kts 137°
2026-05-06 20:32 38.65770 -26.86676 10380 ft 314 kts 137°
2026-05-06 20:33 38.64221 -26.84644 10557 ft 332 kts 137°
2026-05-06 20:33 38.62563 -26.82471 10698 ft 350 kts 137°
2026-05-06 20:33 38.60828 -26.80192 10819 ft 365 kts 136°
2026-05-06 20:33 38.59026 -26.77824 11012 ft 376 kts 136°
2026-05-06 20:34 38.57185 -26.75403 11350 ft 381 kts 136°
2026-05-06 20:34 38.55312 -26.72973 11765 ft 384 kts 137°
2026-05-06 20:34 38.53430 -26.70528 12162 ft 387 kts 136°
2026-05-06 20:34 38.51538 -26.68053 12574 ft 390 kts 136°
2026-05-06 20:35 38.49642 -26.65569 12966 ft 393 kts 136°
2026-05-06 20:35 38.47749 -26.63089 13155 ft 400 kts 136°
2026-05-06 20:35 38.45776 -26.60507 13157 ft 409 kts 136°
2026-05-06 20:35 38.43774 -26.57892 13164 ft 416 kts 136°
2026-05-06 20:36 38.41735 -26.55230 13152 ft 422 kts 136°
2026-05-06 20:36 38.39677 -26.52547 13140 ft 422 kts 136°
2026-05-06 20:36 38.37634 -26.49884 13144 ft 420 kts 136°
2026-05-06 20:36 38.35580 -26.47211 13146 ft 420 kts 136°
2026-05-06 20:37 38.33534 -26.44550 13150 ft 420 kts 136°
2026-05-06 20:37 38.31510 -26.41921 13155 ft 420 kts 136°
2026-05-06 20:37 38.29438 -26.39232 13158 ft 421 kts 136°
2026-05-06 20:37 38.27388 -26.36575 13155 ft 421 kts 136°
2026-05-06 20:38 38.25337 -26.33918 13141 ft 421 kts 136°
2026-05-06 20:38 38.23282 -26.31258 13148 ft 421 kts 136°
2026-05-06 20:38 38.21233 -26.28609 13153 ft 421 kts 136°
2026-05-06 20:38 38.19200 -26.25982 13159 ft 421 kts 136°
2026-05-06 20:39 38.17146 -26.23330 13160 ft 421 kts 137°
2026-05-06 20:39 38.15092 -26.20683 13160 ft 421 kts 137°
2026-05-06 20:39 38.13033 -26.18031 13156 ft 421 kts 137°
2026-05-06 20:39 38.10974 -26.15381 13161 ft 421 kts 137°
2026-05-06 20:40 38.08923 -26.12743 13149 ft 421 kts 137°
2026-05-06 20:40 38.06861 -26.10090 13160 ft 421 kts 137°
2026-05-06 20:40 38.04888 -26.07553 13145 ft 412 kts 137°
2026-05-06 20:40 38.02920 -26.05021 13147 ft 394 kts 137°
2026-05-06 20:41 38.01026 -26.02587 12812 ft 380 kts 137°
2026-05-06 20:41 37.99201 -26.00245 12430 ft 369 kts 137°
2026-05-06 20:41 37.97428 -25.97974 12042 ft 358 kts 137°
2026-05-06 20:41 37.95689 -25.95751 11615 ft 351 kts 137°
2026-05-06 20:42 37.93977 -25.93565 11207 ft 350 kts 138°
2026-05-06 20:42 37.92244 -25.91355 10979 ft 356 kts 137°
2026-05-06 20:42 37.90521 -25.89157 10809 ft 344 kts 138°
2026-05-06 20:42 37.88879 -25.87056 10655 ft 326 kts 138°
2026-05-06 20:43 37.87320 -25.85065 10516 ft 311 kts 138°
2026-05-06 20:43 37.85835 -25.83170 10394 ft 297 kts 138°
2026-05-06 20:43 37.84396 -25.81338 10290 ft 290 kts 138°
2026-05-06 20:43 37.83020 -25.79589 10170 ft 287 kts 139°
2026-05-06 20:44 37.81602 -25.77790 9911 ft 289 kts 138°
2026-05-06 20:44 37.80192 -25.75998 9621 ft 284 kts 138°
2026-05-06 20:44 37.78820 -25.74254 9342 ft 277 kts 138°
2026-05-06 20:44 37.77479 -25.72549 9086 ft 272 kts 138°
2026-05-06 20:45 37.76146 -25.70858 8836 ft 271 kts 138°
2026-05-06 20:45 37.74802 -25.69157 8587 ft 277 kts 138°
2026-05-06 20:45 37.73426 -25.67415 8310 ft 283 kts 138°
2026-05-06 20:45 37.72034 -25.65660 7975 ft 281 kts 138°
2026-05-06 20:46 37.70668 -25.63941 7692 ft 274 kts 138°
2026-05-06 20:46 37.69350 -25.62284 7424 ft 268 kts 137°
2026-05-06 20:46 37.68038 -25.60635 7171 ft 265 kts 137°
2026-05-06 20:46 37.66729 -25.58992 6931 ft 266 kts 137°
2026-05-06 20:47 37.65400 -25.57325 6691 ft 273 kts 137°
2026-05-06 20:47 37.64044 -25.55623 6421 ft 275 kts 137°
2026-05-06 20:47 37.62707 -25.53945 6251 ft 264 kts 137°
2026-05-06 20:47 37.61432 -25.52346 6115 ft 251 kts 137°
2026-05-06 20:48 37.60217 -25.50822 6013 ft 242 kts 137°
2026-05-06 20:48 37.59186 -25.49202 5894 ft 241 kts 116°
2026-05-06 20:48 37.58790 -25.47164 5822 ft 241 kts 89°
2026-05-06 20:48 37.59091 -25.45118 5632 ft 236 kts 64°
2026-05-06 20:49 37.60005 -25.43461 5385 ft 228 kts 39°
2026-05-06 20:49 37.61334 -25.42430 5142 ft 224 kts 15°
2026-05-06 20:49 37.62857 -25.42122 4827 ft 224 kts 353°
2026-05-06 20:49 37.64343 -25.42580 4494 ft 217 kts 330°
2026-05-06 20:50 37.65542 -25.43684 4237 ft 213 kts 311°
2026-05-06 20:50 37.66396 -25.45172 4110 ft 205 kts 296°
2026-05-06 20:50 37.67013 -25.46813 3854 ft 208 kts 291°
2026-05-06 20:50 37.67559 -25.48521 3587 ft 211 kts 290°
2026-05-06 20:51 37.68093 -25.50243 3322 ft 210 kts 290°
2026-05-06 20:51 37.68614 -25.51920 3039 ft 207 kts 290°
2026-05-06 20:51 37.69142 -25.53611 2760 ft 202 kts 290°
2026-05-06 20:51 37.69642 -25.55216 2475 ft 197 kts 289°
2026-05-06 20:52 37.70138 -25.56802 2199 ft 190 kts 289°
2026-05-06 20:52 37.70611 -25.58315 1953 ft 181 kts 289°
2026-05-06 20:52 37.71061 -25.59754 1696 ft 170 kts 289°
2026-05-06 20:52 37.71479 -25.61087 1488 ft 157 kts 290°
2026-05-06 20:53 37.71861 -25.62311 1301 ft 143 kts 289°
2026-05-06 20:53 37.72212 -25.63435 1133 ft 134 kts 289°
2026-05-06 20:53 37.72550 -25.64515 914 ft 129 kts 288°
2026-05-06 20:53 37.72889 -25.65596 749 ft 136 kts 289°
2026-05-06 20:54 37.73235 -25.66700 574 ft 133 kts 289°
2026-05-06 20:54 37.73576 -25.67783 377 ft 133 kts 289°
2026-05-06 20:54 37.73914 -25.68864 210 ft 128 kts 289°
2026-05-06 20:54 37.74163 -25.69664 227 ft 50 kts 292°
2026-05-06 20:55 37.74195 -25.69765 232 ft 0 kts 291°
2026-05-06 20:55 37.74215 -25.69829 232 ft 13 kts 292°
2026-05-06 20:55 37.74248 -25.69929 233 ft 12 kts 294°
2026-05-06 20:55 37.74281 -25.70025 237 ft 12 kts 294°
2026-05-06 20:56 37.74315 -25.70121 241 ft 12 kts 297°
2026-05-06 20:56 37.74355 -25.70207 244 ft 11 kts 306°
2026-05-06 20:56 37.74408 -25.70279 250 ft 11 kts 318°
2026-05-06 20:56 37.74468 -25.70336 256 ft 11 kts 323°
2026-05-06 20:57 37.74526 -25.70392 261 ft 10 kts 323°
2026-05-06 20:57 37.74578 -25.70453 267 ft 10 kts 309°
2026-05-06 20:57 37.74615 -25.70526 271 ft 10 kts 296°
2026-05-06 20:57 37.74642 -25.70605 271 ft 10 kts 292°
2026-05-06 20:58 37.74667 -25.70681 275 ft 9 kts 292°
2026-05-06 20:58 37.74692 -25.70759 272 ft 9 kts 292°
2026-05-06 20:58 37.74716 -25.70836 271 ft 9 kts 292°
2026-05-06 20:58 37.74743 -25.70919 273 ft 11 kts 291°
2026-05-06 20:59 37.74779 -25.70967 271 ft 6 kts 18°
2026-05-06 20:59 37.74797 -25.70955 274 ft 9 kts 24°
2026-05-06 20:59 37.74828 -25.70938 270 ft 0 kts 23°